,,,PA_Meas_PMT16A,,PR_Meas_QMR101_102,,RH_Meas_QMH101,,SR_Meas_QMS101,,TA_Meas_QMH101,,GenWind,,GenWind,
date,time,status,PA,status,PR,status,RH,status,SR,status,TA,status,DirAvg,status,SpdAvg,
2008-10-24, 00:00:04,VALID,1003.99,VALID,0,VALID,93.9802,VALID,0.100563,VALID,25.2027,VALID,353,VALID,0,
2008-10-24, 00:01:04,VALID,1003.97,VALID,0,VALID,93.9802,VALID,0,VALID,25.1832,VALID,353,VALID,0,
2008-10-24, 00:02:04,VALID,1003.96,VALID,0,VALID,93.9802,VALID,0,VALID,25.1637,VALID,353,VALID,0,
2008-10-24, 00:03:04,VALID,1003.9,VALID,0,VALID,94.0717,VALID,0,VALID,25.1637,VALID,353,VALID,0,
2008-10-24, 00:04:04,VALID,1003.91,VALID,0,VALID,94.087,VALID,0,VALID,25.1656,VALID,353,VALID,0,
2008-10-24, 00:05:04,VALID,1003.91,VALID,0,VALID,94.1099,VALID,0,VALID,25.1656,VALID,353,VALID,0,
2008-10-24, 00:06:04,VALID,1003.92,VALID,0,VALID,94.148,VALID,0,VALID,25.1442,VALID,353,VALID,0,
2008-10-24, 00:07:04,VALID,1003.89,VALID,0,VALID,94.3311,VALID,0,VALID,25.1637,VALID,59,VALID,0.466797,
2008-10-24, 00:08:04,VALID,1003.83,VALID,0,VALID,94.3845,VALID,0.100563,VALID,25.1832,VALID,59,VALID,0.34375,
2008-10-24, 00:09:04,VALID,1003.84,VALID,0,VALID,94.3998,VALID,0,VALID,25.1832,VALID,59,VALID,0.422656,
2008-10-24, 00:10:04,VALID,1003.78,VALID,0,VALID,94.4913,VALID,0,VALID,25.1832,VALID,47,VALID,0.520703,
2008-10-24, 00:11:04,VALID,1003.77,VALID,0,VALID,94.3158,VALID,0,VALID,25.1442,VALID,28,VALID,0.695313,
2008-10-24, 00:12:04,VALID,1003.76,VALID,0,VALID,94.354,VALID,0,VALID,25.1248,VALID,25,VALID,0.642969,
2008-10-24, 00:13:04,VALID,1003.72,VALID,0,VALID,94.4761,VALID,0,VALID,25.1267,VALID,12,VALID,0.914844,
2008-10-24, 00:14:04,VALID,1003.69,VALID,0,VALID,94.5829,VALID,0,VALID,25.1248,VALID,4,VALID,0.790234,
2008-10-24, 00:15:04,VALID,1003.65,VALID,0,VALID,94.56,VALID,0.100563,VALID,25.1248,VALID,360,VALID,0.685547,
2008-10-24, 00:16:04,VALID,1003.63,VALID,0,VALID,94.5905,VALID,0.100563,VALID,25.1442,VALID,358,VALID,0.562891,
2008-10-24, 00:17:04,VALID,1003.6,VALID,0,VALID,94.6973,VALID,0,VALID,25.1637,VALID,1,VALID,0.884375,
2008-10-24, 00:18:04,VALID,1003.63,VALID,0,VALID,94.949,VALID,0,VALID,25.3,VALID,25,VALID,0.594922,
2008-10-24, 00:19:04,VALID,1003.61,VALID,0,VALID,94.9643,VALID,0,VALID,25.339,VALID,7,VALID,0.575391,
2008-10-24, 00:20:04,VALID,1003.6,VALID,0,VALID,94.9338,VALID,0,VALID,25.3779,VALID,22,VALID,0.470703,
2008-10-24, 00:21:04,VALID,1003.61,VALID,0,VALID,94.6744,VALID,0.100563,VALID,25.3779,VALID,13,VALID,0.387891,
2008-10-24, 00:22:04,VALID,1003.61,VALID,0,VALID,94.5523,VALID,0,VALID,25.339,VALID,13,VALID,0.198437,
2008-10-24, 00:23:04,VALID,1003.69,VALID,0,VALID,94.5447,VALID,0.100563,VALID,25.337,VALID,13,VALID,0.149609,
2008-10-24, 00:24:04,VALID,1003.63,VALID,0,VALID,94.6286,VALID,0.100563,VALID,25.3779,VALID,13,VALID,0.179297,
2008-10-24, 00:25:04,VALID,1003.65,VALID,0,VALID,94.6057,VALID,0,VALID,25.3779,VALID,13,VALID,0,
2008-10-24, 00:26:04,VALID,1003.67,VALID,0,VALID,94.8041,VALID,0,VALID,25.4772,VALID,54,VALID,0.491406,
2008-10-24, 00:27:04,VALID,1003.65,VALID,0,VALID,94.6439,VALID,0,VALID,25.4753,VALID,55,VALID,0,
2008-10-24, 00:28:04,VALID,1003.65,VALID,0,VALID,94.6515,VALID,0.100563,VALID,25.4753,VALID,55,VALID,0.165234,
2008-10-24, 00:29:04,VALID,1003.67,VALID,0,VALID,94.6744,VALID,0.100563,VALID,25.5337,VALID,55,VALID,0.288672,
2008-10-24, 00:30:04,VALID,1003.64,VALID,0,VALID,94.6744,VALID,0.100563,VALID,25.5532,VALID,55,VALID,0.251953,
2008-10-24, 00:31:04,VALID,1003.62,VALID,0,VALID,94.6363,VALID,0.100563,VALID,25.5727,VALID,54,VALID,0.483203,
2008-10-24, 00:32:04,VALID,1003.59,VALID,0,VALID,94.5371,VALID,0.100563,VALID,25.5727,VALID,50,VALID,0.671484,
2008-10-24, 00:33:04,VALID,1003.59,VALID,0,VALID,94.56,VALID,0,VALID,25.6136,VALID,43,VALID,0.567187,
2008-10-24, 00:34:04,VALID,1003.58,VALID,0,VALID,94.4227,VALID,0,VALID,25.5532,VALID,43,VALID,0.553125,
2008-10-24, 00:35:04,VALID,1003.58,VALID,0,VALID,94.1099,VALID,0,VALID,25.4753,VALID,36,VALID,0.722266,
2008-10-24, 00:36:04,VALID,1003.56,VALID,0,VALID,94.0412,VALID,0,VALID,25.4169,VALID,36,VALID,0.676562,
2008-10-24, 00:37:04,VALID,1003.57,VALID,0,VALID,94.0031,VALID,0.100563,VALID,25.3779,VALID,35,VALID,0.516797,
2008-10-24, 00:38:04,VALID,1003.56,VALID,0,VALID,94.148,VALID,0,VALID,25.3584,VALID,35,VALID,0.479297,
2008-10-24, 00:39:04,VALID,1003.54,VALID,0,VALID,94.0412,VALID,0,VALID,25.2806,VALID,35,VALID,0.496875,
2008-10-24, 00:40:04,VALID,1003.53,VALID,0,VALID,94.2701,VALID,0,VALID,25.2806,VALID,35,VALID,0.574609,
2008-10-24, 00:41:04,VALID,1003.53,VALID,0,VALID,94.3845,VALID,0,VALID,25.3,VALID,35,VALID,0.497656,
2008-10-24, 00:42:04,VALID,1003.52,VALID,0,VALID,94.1709,VALID,0,VALID,25.2221,VALID,35,VALID,0.569531,
2008-10-24, 00:43:04,VALID,1003.51,VALID,0,VALID,94.4455,VALID,0,VALID,25.2825,VALID,31,VALID,0.590234,
2008-10-24, 00:44:04,VALID,1003.52,VALID,0,VALID,94.3235,VALID,0,VALID,25.2221,VALID,31,VALID,0.510938,
2008-10-24, 00:45:04,VALID,1003.5,VALID,0,VALID,94.2548,VALID,0,VALID,25.2046,VALID,31,VALID,0.480469,
2008-10-24, 00:46:04,VALID,1003.5,VALID,0,VALID,94.209,VALID,0,VALID,25.1248,VALID,31,VALID,0.522656,
2008-10-24, 00:47:04,VALID,1003.45,VALID,0,VALID,94.3158,VALID,0,VALID,25.0858,VALID,28,VALID,0.553125,
2008-10-24, 00:48:04,VALID,1003.36,VALID,0,VALID,94.6363,VALID,0,VALID,25.1442,VALID,3,VALID,0.651172,
2008-10-24, 00:49:04,VALID,1003.35,VALID,0,VALID,94.827,VALID,0,VALID,25.2221,VALID,8,VALID,0.660547,
2008-10-24, 00:50:04,VALID,1003.28,VALID,0,VALID,94.8728,VALID,0,VALID,25.2806,VALID,353,VALID,0.465625,
2008-10-24, 00:51:04,VALID,1003.27,VALID,0,VALID,95.0406,VALID,0,VALID,25.3779,VALID,27,VALID,0.612109,
2008-10-24, 00:52:04,VALID,1003.28,VALID,0,VALID,95.1703,VALID,0,VALID,25.5337,VALID,26,VALID,0.847266,
2008-10-24, 00:53:04,VALID,1003.24,VALID,0,VALID,95.2084,VALID,0,VALID,25.6506,VALID,28,VALID,0.948828,
2008-10-24, 00:54:04,VALID,1003.24,VALID,0,VALID,95.0711,VALID,0,VALID,25.7285,VALID,18,VALID,0.885156,
2008-10-24, 00:55:04,VALID,1003.26,VALID,0,VALID,94.9567,VALID,0,VALID,25.8064,VALID,20,VALID,0.526172,
2008-10-24, 00:56:04,VALID,1003.25,VALID,0,VALID,94.7583,VALID,0,VALID,25.8668,VALID,26,VALID,0.21875,
2008-10-24, 00:57:04,VALID,1003.24,VALID,0,VALID,94.5523,VALID,0,VALID,25.8863,VALID,26,VALID,0.367188,
2008-10-24, 00:58:04,VALID,1003.26,VALID,0,VALID,94.354,VALID,0,VALID,25.8648,VALID,26,VALID,0.162109,
2008-10-24, 00:59:04,VALID,1003.21,VALID,0,VALID,94.2014,VALID,0.100563,VALID,25.8453,VALID,26,VALID,0.137109,
2008-10-24, 01:00:04,VALID,1003.16,VALID,0,VALID,94.1175,VALID,0,VALID,25.8259,VALID,26,VALID,0.00078125,
2008-10-24, 01:01:04,VALID,1003.14,VALID,0,VALID,94.1633,VALID,0,VALID,25.8863,VALID,26,VALID,0.122266,
2008-10-24, 01:02:04,VALID,1003.17,VALID,0,VALID,94.148,VALID,0,VALID,25.8843,VALID,26,VALID,0.0152344,
2008-10-24, 01:03:04,VALID,1003.15,VALID,0,VALID,94.0717,VALID,0,VALID,25.9252,VALID,33,VALID,0.278516,
2008-10-24, 01:04:04,VALID,1003.16,VALID,0,VALID,93.9954,VALID,0,VALID,25.9038,VALID,39,VALID,0.234375,
2008-10-24, 01:05:04,VALID,1003.15,VALID,0,VALID,93.8963,VALID,0,VALID,25.9232,VALID,39,VALID,0,
2008-10-24, 01:06:04,VALID,1003.16,VALID,0,VALID,93.8505,VALID,0,VALID,25.9252,VALID,65,VALID,0.742578,
2008-10-24, 01:07:04,VALID,1003.19,VALID,0,VALID,93.9039,VALID,0,VALID,25.9642,VALID,96,VALID,0.697656,
2008-10-24, 01:08:04,VALID,1003.19,VALID,0,VALID,93.82,VALID,0,VALID,25.9622,VALID,131,VALID,0.734766,
2008-10-24, 01:09:04,VALID,1003.18,VALID,0,VALID,93.6903,VALID,0,VALID,25.9622,VALID,131,VALID,0.753125,
2008-10-24, 01:10:04,VALID,1003.13,VALID,0,VALID,93.553,VALID,0,VALID,25.9427,VALID,142,VALID,1.01484,
2008-10-24, 01:11:04,VALID,1003.09,VALID,0,VALID,93.5301,VALID,0,VALID,25.9447,VALID,144,VALID,0.658203,
2008-10-24, 01:12:04,VALID,1003.07,VALID,0,VALID,93.5148,VALID,0,VALID,25.9232,VALID,137,VALID,0.690625,
2008-10-24, 01:13:04,VALID,1003.04,VALID,0,VALID,93.5377,VALID,0,VALID,25.9232,VALID,103,VALID,0.671484,
2008-10-24, 01:14:04,VALID,1003.03,VALID,0,VALID,93.5148,VALID,0,VALID,25.9622,VALID,115,VALID,0.837891,
2008-10-24, 01:15:04,VALID,1003.02,VALID,0,VALID,93.3165,VALID,0,VALID,25.9797,VALID,82,VALID,0.216406,
2008-10-24, 01:16:04,VALID,1003.02,VALID,0,VALID,93.1105,VALID,0,VALID,26.0031,VALID,82,VALID,0.053125,
2008-10-24, 01:17:04,VALID,1003.02,VALID,0,VALID,92.9655,VALID,0,VALID,25.9447,VALID,82,VALID,0,
2008-10-24, 01:18:04,VALID,1003,VALID,0,VALID,92.8664,VALID,0,VALID,25.9038,VALID,82,VALID,0,
2008-10-24, 01:19:04,VALID,1002.98,VALID,0,VALID,92.9045,VALID,0,VALID,25.9057,VALID,82,VALID,0,
2008-10-24, 01:20:04,VALID,1002.98,VALID,0,VALID,92.9732,VALID,0,VALID,25.8843,VALID,82,VALID,0,
2008-10-24, 01:21:04,VALID,1002.97,VALID,0,VALID,92.9884,VALID,0,VALID,25.8648,VALID,82,VALID,0.05625,
2008-10-24, 01:22:04,VALID,1003,VALID,0,VALID,92.935,VALID,0,VALID,25.8259,VALID,82,VALID,0,
2008-10-24, 01:23:04,VALID,1003,VALID,0,VALID,92.9655,VALID,0,VALID,25.8259,VALID,82,VALID,0.241797,
2008-10-24, 01:24:04,VALID,1003,VALID,0,VALID,92.8816,VALID,0,VALID,25.8278,VALID,82,VALID,0,
2008-10-24, 01:25:04,VALID,1002.99,VALID,0,VALID,93.0266,VALID,0,VALID,25.7889,VALID,82,VALID,0,
2008-10-24, 01:26:04,VALID,1003.01,VALID,0,VALID,92.9198,VALID,0,VALID,25.748,VALID,82,VALID,0.127734,
2008-10-24, 01:27:04,VALID,1003.04,VALID,0,VALID,93.0876,VALID,0,VALID,25.7499,VALID,82,VALID,0.333984,
2008-10-24, 01:28:04,VALID,1003.07,VALID,0,VALID,92.7901,VALID,0,VALID,25.6525,VALID,81,VALID,0.458594,
2008-10-24, 01:29:04,VALID,1003.04,VALID,0,VALID,92.8664,VALID,0,VALID,25.5941,VALID,44,VALID,0.557031,
2008-10-24, 01:30:04,VALID,1003.06,VALID,0,VALID,92.8358,VALID,0,VALID,25.4948,VALID,12,VALID,0.633984,
2008-10-24, 01:31:04,VALID,1003.06,VALID,0,VALID,92.8969,VALID,0,VALID,25.4363,VALID,11,VALID,0.673047,
2008-10-24, 01:32:04,VALID,1003.12,VALID,0,VALID,93.0342,VALID,0,VALID,25.3584,VALID,11,VALID,0.457031,
2008-10-24, 01:33:04,VALID,1003.13,VALID,0,VALID,93.2707,VALID,0,VALID,25.3214,VALID,11,VALID,0.702734,
2008-10-24, 01:34:04,VALID,1003.15,VALID,0,VALID,93.8276,VALID,0,VALID,25.339,VALID,9,VALID,0.527734,
2008-10-24, 01:35:04,VALID,1003.12,VALID,0,VALID,94.0183,VALID,0,VALID,25.3604,VALID,9,VALID,0.464844,
2008-10-24, 01:36:04,VALID,1003.12,VALID,0,VALID,94.1175,VALID,0,VALID,25.339,VALID,360,VALID,0.529688,
2008-10-24, 01:37:04,VALID,1003.12,VALID,0,VALID,94.1785,VALID,0,VALID,25.3604,VALID,360,VALID,0.359766,
2008-10-24, 01:38:04,VALID,1003.13,VALID,0,VALID,94.0183,VALID,0,VALID,25.3195,VALID,360,VALID,0.380859,
2008-10-24, 01:39:04,VALID,1003.14,VALID,0,VALID,93.9039,VALID,0,VALID,25.2221,VALID,360,VALID,0.540625,
2008-10-24, 01:40:04,VALID,1003.11,VALID,0,VALID,94.1633,VALID,0,VALID,25.2416,VALID,360,VALID,0.477734,
2008-10-24, 01:41:04,VALID,1003.07,VALID,0,VALID,94.3082,VALID,0.100563,VALID,25.2221,VALID,360,VALID,0.185156,
2008-10-24, 01:42:04,VALID,1003.05,VALID,0,VALID,94.2167,VALID,0,VALID,25.2027,VALID,360,VALID,0.416406,
2008-10-24, 01:43:04,VALID,1003.05,VALID,0,VALID,94.4837,VALID,0,VALID,25.2221,VALID,360,VALID,0.367188,
2008-10-24, 01:44:04,VALID,1003.01,VALID,0,VALID,94.5523,VALID,0.100563,VALID,25.2825,VALID,356,VALID,0.516797,
2008-10-24, 01:45:04,VALID,1002.99,VALID,0,VALID,94.4532,VALID,0.100563,VALID,25.2416,VALID,357,VALID,0.497656,
2008-10-24, 01:46:04,VALID,1002.96,VALID,0,VALID,94.4227,VALID,0,VALID,25.2027,VALID,352,VALID,0.544531,
2008-10-24, 01:47:04,VALID,1002.95,VALID,0,VALID,94.4455,VALID,0,VALID,25.2046,VALID,352,VALID,0.6125,
2008-10-24, 01:48:04,VALID,1002.93,VALID,0,VALID,94.5447,VALID,0,VALID,25.2046,VALID,352,VALID,0.399609,
2008-10-24, 01:49:04,VALID,1002.92,VALID,0,VALID,94.3692,VALID,0,VALID,25.1248,VALID,352,VALID,0.358594,
2008-10-24, 01:50:04,VALID,1002.9,VALID,0,VALID,94.293,VALID,0,VALID,25.0663,VALID,352,VALID,0.266406,
2008-10-24, 01:51:04,VALID,1002.86,VALID,0,VALID,94.5142,VALID,0.100563,VALID,25.0877,VALID,352,VALID,0.408203,
2008-10-24, 01:52:04,VALID,1002.82,VALID,0,VALID,94.6363,VALID,0,VALID,25.0663,VALID,352,VALID,0.198047,
2008-10-24, 01:53:04,VALID,1002.79,VALID,0,VALID,94.5523,VALID,0,VALID,25.0274,VALID,352,VALID,0.411719,
2008-10-24, 01:54:04,VALID,1002.79,VALID,0,VALID,94.4913,VALID,0.100563,VALID,25.0079,VALID,352,VALID,0.366016,
2008-10-24, 01:55:04,VALID,1002.8,VALID,0,VALID,94.4989,VALID,0,VALID,24.9885,VALID,352,VALID,0.273047,
2008-10-24, 01:56:04,VALID,1002.78,VALID,0,VALID,94.6897,VALID,0,VALID,24.9495,VALID,352,VALID,0.181641,
2008-10-24, 01:57:04,VALID,1002.75,VALID,0,VALID,94.7736,VALID,0,VALID,25.0098,VALID,352,VALID,0,
2008-10-24, 01:58:04,VALID,1002.76,VALID,0,VALID,94.7202,VALID,0,VALID,24.9904,VALID,352,VALID,0,
2008-10-24, 01:59:04,VALID,1002.75,VALID,0,VALID,94.6973,VALID,0,VALID,24.9495,VALID,352,VALID,0,
2008-10-24, 02:00:04,VALID,1002.77,VALID,0,VALID,94.7125,VALID,0,VALID,24.9495,VALID,352,VALID,0,
2008-10-24, 02:01:04,VALID,1002.77,VALID,0,VALID,94.7965,VALID,0,VALID,24.9709,VALID,352,VALID,0.0554687,
2008-10-24, 02:02:04,VALID,1002.78,VALID,0,VALID,94.7736,VALID,0,VALID,24.93,VALID,352,VALID,0.527344,
2008-10-24, 02:03:04,VALID,1002.76,VALID,0,VALID,94.766,VALID,0,VALID,24.9319,VALID,352,VALID,0.684766,
2008-10-24, 02:04:04,VALID,1002.76,VALID,0,VALID,94.6363,VALID,0,VALID,24.8327,VALID,352,VALID,0.536719,
2008-10-24, 02:05:04,VALID,1002.75,VALID,0,VALID,94.7812,VALID,0,VALID,24.854,VALID,352,VALID,0.671094,
2008-10-24, 02:06:04,VALID,1002.73,VALID,0,VALID,94.9567,VALID,0,VALID,24.8716,VALID,352,VALID,0.55625,
2008-10-24, 02:07:04,VALID,1002.72,VALID,0,VALID,95.094,VALID,0,VALID,24.9319,VALID,352,VALID,0.605469,
2008-10-24, 02:08:04,VALID,1002.76,VALID,0,VALID,95.1398,VALID,0,VALID,24.93,VALID,352,VALID,0.541016,
2008-10-24, 02:09:04,VALID,1002.75,VALID,0,VALID,95.2161,VALID,0,VALID,24.969,VALID,351,VALID,0.446484,
2008-10-24, 02:10:04,VALID,1002.71,VALID,0,VALID,95.2389,VALID,0,VALID,25.0079,VALID,349,VALID,0.309766,
2008-10-24, 02:11:04,VALID,1002.74,VALID,0,VALID,95.1703,VALID,0,VALID,25.0079,VALID,349,VALID,0,
2008-10-24, 02:12:04,VALID,1002.72,VALID,0,VALID,95.1321,VALID,0,VALID,25.0079,VALID,349,VALID,0,
2008-10-24, 02:13:04,VALID,1002.71,VALID,0,VALID,95.1245,VALID,0,VALID,25.0079,VALID,349,VALID,0,
2008-10-24, 02:14:04,VALID,1002.63,VALID,0,VALID,95.1016,VALID,0,VALID,24.9885,VALID,349,VALID,0,
2008-10-24, 02:15:04,VALID,1002.66,VALID,0,VALID,95.094,VALID,0,VALID,24.9885,VALID,349,VALID,0,
2008-10-24, 02:16:04,VALID,1002.64,VALID,0,VALID,95.1245,VALID,0,VALID,24.9885,VALID,349,VALID,0,
2008-10-24, 02:17:04,VALID,1002.67,VALID,0,VALID,95.1245,VALID,0,VALID,24.969,VALID,349,VALID,0,
2008-10-24, 02:18:04,VALID,1002.66,VALID,0,VALID,95.1703,VALID,0,VALID,24.9671,VALID,349,VALID,0,
2008-10-24, 02:19:04,VALID,1002.67,VALID,0,VALID,95.1703,VALID,0,VALID,24.9885,VALID,349,VALID,0,
2008-10-24, 02:20:04,VALID,1002.7,VALID,0,VALID,95.1474,VALID,0,VALID,24.9885,VALID,349,VALID,0,
2008-10-24, 02:21:04,VALID,1002.69,VALID,0,VALID,95.155,VALID,0,VALID,24.9885,VALID,349,VALID,0,
2008-10-24, 02:22:04,VALID,1002.73,VALID,0,VALID,95.1169,VALID,0,VALID,24.9671,VALID,349,VALID,0.273438,
2008-10-24, 02:23:04,VALID,1002.7,VALID,0,VALID,95.1169,VALID,0.100563,VALID,24.9495,VALID,350,VALID,0.324609,
2008-10-24, 02:24:04,VALID,1002.71,VALID,0,VALID,95.0711,VALID,0,VALID,24.9319,VALID,350,VALID,0.00351562,
2008-10-24, 02:25:04,VALID,1002.7,VALID,0,VALID,95.094,VALID,0,VALID,24.9338,VALID,350,VALID,0.171094,
2008-10-24, 02:26:04,VALID,1002.7,VALID,0,VALID,95.1627,VALID,0,VALID,24.9125,VALID,350,VALID,0.0324219,
2008-10-24, 02:27:04,VALID,1002.71,VALID,0,VALID,95.2313,VALID,0,VALID,24.9319,VALID,350,VALID,0.204688,
2008-10-24, 02:28:04,VALID,1002.68,VALID,0,VALID,95.3991,VALID,0,VALID,25.0488,VALID,53,VALID,0.510156,
2008-10-24, 02:29:04,VALID,1002.66,VALID,0,VALID,95.4678,VALID,0,VALID,25.1072,VALID,45,VALID,0.516016,
2008-10-24, 02:30:04,VALID,1002.64,VALID,0,VALID,95.4678,VALID,0,VALID,25.1656,VALID,45,VALID,0.252344,
2008-10-24, 02:31:05,VALID,1002.59,VALID,0,VALID,95.4831,VALID,0,VALID,25.2046,VALID,29,VALID,0.666797,
2008-10-24, 02:32:05,VALID,1002.6,VALID,0,VALID,95.567,VALID,0,VALID,25.3214,VALID,29,VALID,0.73125,
2008-10-24, 02:33:05,VALID,1002.56,VALID,0,VALID,95.5746,VALID,0,VALID,25.3798,VALID,29,VALID,0.50625,
2008-10-24, 02:34:05,VALID,1002.55,VALID,0,VALID,95.3915,VALID,0,VALID,25.3409,VALID,29,VALID,0.511328,
2008-10-24, 02:35:05,VALID,1002.48,VALID,0,VALID,95.3076,VALID,0,VALID,25.3019,VALID,29,VALID,0.486719,
2008-10-24, 02:36:05,VALID,1002.44,VALID,0,VALID,95.2542,VALID,0,VALID,25.263,VALID,28,VALID,0.214453,
2008-10-24, 02:37:05,VALID,1002.44,VALID,0,VALID,95.2847,VALID,0,VALID,25.2844,VALID,28,VALID,0.341016,
2008-10-24, 02:38:05,VALID,1002.4,VALID,0,VALID,95.3076,VALID,0,VALID,25.2844,VALID,28,VALID,0.467969,
2008-10-24, 02:39:05,VALID,1002.43,VALID,0,VALID,95.3991,VALID,0,VALID,25.3,VALID,9,VALID,0.526953,
2008-10-24, 02:40:05,VALID,1002.42,VALID,0,VALID,95.2695,VALID,0,VALID,25.263,VALID,9,VALID,0.401172,
2008-10-24, 02:41:05,VALID,1002.36,VALID,0,VALID,95.4144,VALID,0,VALID,25.3019,VALID,9,VALID,0.600781,
2008-10-24, 02:42:05,VALID,1002.34,VALID,0,VALID,95.4449,VALID,0,VALID,25.3409,VALID,9,VALID,0.427734,
2008-10-24, 02:43:05,VALID,1002.33,VALID,0,VALID,95.4297,VALID,0,VALID,25.339,VALID,9,VALID,0.346484,
2008-10-24, 02:44:05,VALID,1002.35,VALID,0,VALID,95.3152,VALID,0,VALID,25.339,VALID,9,VALID,0.290625,
2008-10-24, 02:45:05,VALID,1002.34,VALID,0,VALID,95.2237,VALID,0,VALID,25.2825,VALID,9,VALID,0.372656,
2008-10-24, 02:46:05,VALID,1002.31,VALID,0,VALID,95.1932,VALID,0,VALID,25.2221,VALID,9,VALID,0.253906,
2008-10-24, 02:47:05,VALID,1002.34,VALID,0,VALID,95.1779,VALID,0,VALID,25.2027,VALID,14,VALID,0.608203,
2008-10-24, 02:48:05,VALID,1002.33,VALID,0,VALID,95.2084,VALID,0,VALID,25.2027,VALID,14,VALID,0.458203,
2008-10-24, 02:49:05,VALID,1002.31,VALID,0,VALID,95.3763,VALID,0,VALID,25.2825,VALID,7,VALID,0.704297,
2008-10-24, 02:50:05,VALID,1002.3,VALID,0,VALID,95.3305,VALID,0,VALID,25.2611,VALID,9,VALID,0.276563,
2008-10-24, 02:51:05,VALID,1002.31,VALID,0,VALID,95.3,VALID,0,VALID,25.2611,VALID,9,VALID,0,
2008-10-24, 02:52:05,VALID,1002.32,VALID,0,VALID,95.3,VALID,0,VALID,25.263,VALID,8,VALID,0.219531,
2008-10-24, 02:53:05,VALID,1002.32,VALID,0,VALID,95.2084,VALID,0.100563,VALID,25.2416,VALID,8,VALID,0.0804688,
2008-10-24, 02:54:05,VALID,1002.34,VALID,0,VALID,95.1779,VALID,0,VALID,25.2221,VALID,8,VALID,0,
2008-10-24, 02:55:05,VALID,1002.36,VALID,0,VALID,95.1398,VALID,0,VALID,25.1832,VALID,8,VALID,0,
2008-10-24, 02:56:05,VALID,1002.35,VALID,0,VALID,95.1321,VALID,0,VALID,25.1832,VALID,8,VALID,0,
2008-10-24, 02:57:05,VALID,1002.34,VALID,0,VALID,95.1093,VALID,0,VALID,25.1442,VALID,8,VALID,0.130078,
2008-10-24, 02:58:05,VALID,1002.36,VALID,0,VALID,95.0558,VALID,0,VALID,25.1053,VALID,8,VALID,0.364453,
2008-10-24, 02:59:05,VALID,1002.36,VALID,0,VALID,95.0787,VALID,0,VALID,25.0877,VALID,8,VALID,0.205078,
2008-10-24, 03:00:05,VALID,1002.36,VALID,0,VALID,95.0711,VALID,0,VALID,25.0663,VALID,8,VALID,0.208984,
2008-10-24, 03:01:05,VALID,1002.32,VALID,0,VALID,95.0253,VALID,0,VALID,25.0293,VALID,8,VALID,0,
2008-10-24, 03:02:05,VALID,1002.34,VALID,0,VALID,95.0177,VALID,0,VALID,25.0079,VALID,8,VALID,0.216016,
2008-10-24, 03:03:05,VALID,1002.32,VALID,0,VALID,95.0864,VALID,0.100563,VALID,24.9885,VALID,2,VALID,0.480078,
2008-10-24, 03:04:05,VALID,1002.34,VALID,0,VALID,95.1321,VALID,0,VALID,25.0098,VALID,2,VALID,0.478516,
2008-10-24, 03:05:05,VALID,1002.36,VALID,0,VALID,95.1779,VALID,0,VALID,25.0079,VALID,4,VALID,0.276172,
2008-10-24, 03:06:05,VALID,1002.36,VALID,0,VALID,95.1093,VALID,0.100563,VALID,25.0079,VALID,11,VALID,0.0976563,
2008-10-24, 03:07:05,VALID,1002.36,VALID,0,VALID,95.1169,VALID,0,VALID,25.0098,VALID,11,VALID,0.446094,
2008-10-24, 03:08:05,VALID,1002.31,VALID,0,VALID,95.1321,VALID,0,VALID,25.0293,VALID,16,VALID,0.267969,
2008-10-24, 03:09:05,VALID,1002.29,VALID,0,VALID,95.2084,VALID,0,VALID,25.0079,VALID,2,VALID,0.732031,
2008-10-24, 03:10:05,VALID,1002.26,VALID,0,VALID,95.3152,VALID,0,VALID,25.1053,VALID,11,VALID,0.948438,
2008-10-24, 03:11:05,VALID,1002.27,VALID,0,VALID,95.2008,VALID,0,VALID,25.1248,VALID,5,VALID,0.452734,
2008-10-24, 03:12:05,VALID,1002.23,VALID,0,VALID,95.1169,VALID,0,VALID,25.1442,VALID,10,VALID,0.407031,
2008-10-24, 03:13:05,VALID,1002.24,VALID,0,VALID,95.033,VALID,0,VALID,25.1461,VALID,10,VALID,0,
2008-10-24, 03:14:05,VALID,1002.23,VALID,0,VALID,94.949,VALID,0,VALID,25.1248,VALID,10,VALID,0,
2008-10-24, 03:15:05,VALID,1002.22,VALID,0,VALID,94.8956,VALID,0,VALID,25.1442,VALID,10,VALID,0,
2008-10-24, 03:16:05,VALID,1002.27,VALID,0,VALID,94.827,VALID,0,VALID,25.1072,VALID,10,VALID,0,
2008-10-24, 03:17:05,VALID,1002.27,VALID,0,VALID,94.7431,VALID,0,VALID,25.0858,VALID,10,VALID,0.324609,
2008-10-24, 03:18:05,VALID,1002.24,VALID,0,VALID,94.7202,VALID,0,VALID,25.0663,VALID,10,VALID,0.482422,
2008-10-24, 03:19:05,VALID,1002.28,VALID,0,VALID,94.6897,VALID,0,VALID,25.0682,VALID,10,VALID,0.357031,
2008-10-24, 03:20:05,VALID,1002.27,VALID,0,VALID,94.6515,VALID,0,VALID,25.0079,VALID,10,VALID,0.227734,
2008-10-24, 03:21:05,VALID,1002.24,VALID,0,VALID,94.6134,VALID,0,VALID,24.9885,VALID,10,VALID,0.4,
2008-10-24, 03:22:05,VALID,1002.24,VALID,0,VALID,94.5981,VALID,0,VALID,24.9709,VALID,10,VALID,0.315625,
2008-10-24, 03:23:05,VALID,1002.21,VALID,0,VALID,94.56,VALID,0,VALID,24.93,VALID,10,VALID,0.44375,
2008-10-24, 03:24:05,VALID,1002.23,VALID,0,VALID,94.4989,VALID,0,VALID,24.9106,VALID,10,VALID,0.502344,
2008-10-24, 03:25:05,VALID,1002.24,VALID,0,VALID,94.4532,VALID,0,VALID,24.8911,VALID,10,VALID,0.305859,
2008-10-24, 03:26:05,VALID,1002.24,VALID,0,VALID,94.4227,VALID,0,VALID,24.8911,VALID,10,VALID,0.389062,
2008-10-24, 03:27:05,VALID,1002.27,VALID,0,VALID,94.4074,VALID,0,VALID,24.893,VALID,10,VALID,0.403125,
2008-10-24, 03:28:05,VALID,1002.26,VALID,0,VALID,94.3464,VALID,0,VALID,24.854,VALID,10,VALID,0.326953,
2008-10-24, 03:29:05,VALID,1002.28,VALID,0,VALID,94.3769,VALID,0,VALID,24.854,VALID,10,VALID,0.458594,
2008-10-24, 03:30:05,VALID,1002.27,VALID,0,VALID,94.3692,VALID,0,VALID,24.8151,VALID,10,VALID,0.373047,
2008-10-24, 03:31:05,VALID,1002.27,VALID,0,VALID,94.4455,VALID,0,VALID,24.8151,VALID,10,VALID,0.0726563,
2008-10-24, 03:32:05,VALID,1002.34,VALID,0,VALID,94.4379,VALID,0,VALID,24.7937,VALID,10,VALID,0.351563,
2008-10-24, 03:33:05,VALID,1002.37,VALID,0,VALID,94.4837,VALID,0,VALID,24.7743,VALID,102,VALID,0.3,
2008-10-24, 03:34:05,VALID,1002.41,VALID,0,VALID,94.4532,VALID,0,VALID,24.7567,VALID,102,VALID,0.264062,
2008-10-24, 03:35:05,VALID,1002.42,VALID,0,VALID,94.4684,VALID,0,VALID,24.7353,VALID,102,VALID,0.198437,
2008-10-24, 03:36:05,VALID,1002.47,VALID,0,VALID,94.5447,VALID,0,VALID,24.7372,VALID,102,VALID,0.0441406,
2008-10-24, 03:37:05,VALID,1002.45,VALID,0,VALID,94.6515,VALID,0,VALID,24.7353,VALID,42,VALID,0.0222656,
2008-10-24, 03:38:05,VALID,1002.47,VALID,0,VALID,94.6973,VALID,0,VALID,24.7761,VALID,45,VALID,0.117969,
2008-10-24, 03:39:05,VALID,1002.48,VALID,0,VALID,94.6668,VALID,0,VALID,24.7548,VALID,45,VALID,0.00117188,
2008-10-24, 03:40:05,VALID,1002.52,VALID,0,VALID,94.9262,VALID,0.100563,VALID,24.893,VALID,82,VALID,1.02813,
2008-10-24, 03:41:05,VALID,1002.55,VALID,0,VALID,94.9185,VALID,0.100563,VALID,24.969,VALID,75,VALID,0.471484,
2008-10-24, 03:42:05,VALID,1002.55,VALID,0,VALID,94.7431,VALID,0,VALID,24.9885,VALID,74,VALID,0.225391,
2008-10-24, 03:43:05,VALID,1002.54,VALID,0,VALID,94.5905,VALID,0,VALID,25.0274,VALID,74,VALID,0.0949219,
2008-10-24, 03:44:05,VALID,1002.55,VALID,0,VALID,94.4761,VALID,0,VALID,25.0663,VALID,59,VALID,0.518359,
2008-10-24, 03:45:05,VALID,1002.57,VALID,0,VALID,94.3769,VALID,0,VALID,25.1267,VALID,60,VALID,0.372656,
2008-10-24, 03:46:05,VALID,1002.56,VALID,0,VALID,94.2319,VALID,0,VALID,25.1248,VALID,69,VALID,0.176563,
2008-10-24, 03:47:05,VALID,1002.53,VALID,0,VALID,94.0336,VALID,0,VALID,25.1461,VALID,69,VALID,0.230859,